Lapse_Rate
1.9 2.2 2.3 2.7 3.0 3.1 3.2 3.2 4.1 4.4 4.6 4.4 4.4 4.3 5.4 4.8 4.9 4.8 3.9 4.5 5.1 5.4 6.2 6.5 7.6 7.2 7.1 6.9 7.1 7.5 7.5 8.6 8.0 7.3 7.7 7.8 7.7 7.8 8.3 8.4 8.3 8.6 8.3
2.4 2.5 2.4 2.9 2.9 3.1 2.9 3.5 4.3 4.7 5.0 5.3 5.3 4.9 4.3 5.2 5.4 5.4 5.1 4.8 4.9 4.4 4.9 6.8 7.4 7.2 7.3 7.3 7.3 7.6 7.5 8.6 7.6 7.8 7.8 8.0 7.6 8.2 8.5 8.0 8.4 8.8 8.4
3.1 3.1 2.8 2.8 3.3 3.4 3.3 3.3 3.6 4.3 4.7 5.1 5.0 5.1 4.7 4.3 5.5 4.7 4.6 4.6 5.0 5.2 5.2 5.3 7.2 7.7 7.2 7.2 7.6 8.0 7.7 8.0 7.9 7.8 7.4 7.6 8.2 8.7 8.8 8.6 8.6 8.5 8.7
4.5 3.3 3.0 3.2 3.6 3.7 4.1 3.2 3.1 2.9 3.5 4.6 5.2 4.8 5.0 4.9 4.1 4.0 4.3 3.9 4.6 3.9 5.0 5.0 5.9 6.0 7.5 7.1 7.6 7.7 7.7 7.4 7.7 7.5 7.6 7.9 8.3 8.6 9.4 9.0 8.6 8.0 8.4
5.3 4.3 3.4 3.8 4.2 4.1 3.6 3.4 3.4 3.0 2.9 3.6 5.0 5.0 4.5 4.5 4.9 4.5 4.1 4.6 4.7 4.6 4.8 5.8 5.6 5.2 5.2 7.4 7.3 7.7 7.8 7.3 7.5 7.5 7.8 7.8 8.3 8.9 7.9 8.2 8.2 8.4 9.0
5.7 5.0 4.7 4.5 4.5 4.6 4.4 3.7 3.4 3.7 3.4 3.7 4.8 4.9 4.4 4.4 4.5 4.8 5.0 5.6 5.3 5.2 5.5 5.9 5.4 4.5 5.1 6.6 7.2 7.3 6.3 6.1 6.8 7.4 7.9 8.1 8.5 9.1 8.2 8.7 8.5 8.9 9.1
5.2 4.7 4.6 4.8 5.2 4.7 4.3 4.6 5.0 4.5 3.6 4.0 4.4 5.3 5.2 4.1 4.6 4.3 4.9 5.1 4.8 4.7 5.5 5.8 5.3 5.2 5.0 6.7 6.8 7.2 6.9 6.7 6.2 6.7 7.7 8.0 8.4 8.8 8.8 8.4 8.9 8.9 9.4
5.5 5.7 5.2 4.6 5.0 5.6 5.4 4.7 5.1 5.2 4.5 4.5 6.7 5.7 5.7 4.9 4.4 3.7 3.9 4.1 4.0 4.1 4.5 5.1 5.3 5.0 5.1 5.0 5.8 6.4 6.9 7.3 5.7 6.3 6.2 7.2 8.6 8.4 9.2 8.7 9.2 8.9 9.3
6.4 6.0 5.9 5.6 5.6 5.8 6.5 6.0 5.4 5.7 6.5 4.7 5.0 6.7 6.3 5.9 5.2 4.5 4.2 3.6 3.8 3.6 4.0 4.7 5.1 4.9 4.7 4.8 5.0 5.9 6.5 6.2 6.1 6.0 6.2 6.9 7.5 8.6 9.1 8.9 8.8 9.2 9.2
6.0 7.1 6.9 6.3 5.8 5.8 6.4 6.5 7.1 6.3 6.5 6.9 5.5 6.4 6.2 6.2 6.5 6.3 4.7 4.0 4.0 4.2 4.3 4.0 4.3 4.2 4.4 4.2 4.2 5.1 5.5 5.8 7.1 6.7 6.2 6.5 7.6 7.1 9.0 9.2 8.9 9.2 8.8
5.9 6.4 7.3 6.7 5.9 5.9 5.8 6.3 6.2 6.0 6.9 7.1 7.9 7.2 7.0 6.3 6.1 6.5 6.8 6.3 4.5 3.8 3.8 3.5 3.2 3.4 4.5 4.4 3.9 4.1 4.5 5.1 5.8 7.4 6.6 6.3 6.5 7.8 8.0 8.9 8.9 9.0 9.0
6.1 6.5 6.9 7.2 6.8 6.9 6.5 6.4 6.5 5.9 6.1 6.7 7.2 7.8 7.4 7.1 6.8 6.5 6.5 6.5 6.7 6.1 3.8 3.3 3.3 3.2 3.4 4.1 3.9 4.2 4.4 4.2 5.6 6.5 7.2 7.0 6.5 7.4 7.6 8.8 8.7 8.9 9.0
7.0 7.1 7.1 7.3 7.0 7.0 7.3 6.9 6.8 6.5 6.1 6.5 7.2 7.7 8.2 7.6 7.2 6.7 6.4 6.4 6.3 4.8 5.5 3.6 3.0 2.6 2.6 2.7 3.0 3.3 4.3 4.4 4.9 6.1 6.6 7.2 6.9 6.3 7.5 8.0 8.3 8.2 8.6
7.5 7.8 7.9 7.7 7.6 7.3 7.3 7.3 7.1 7.0 6.9 6.6 6.9 7.6 7.7 7.8 7.9 7.4 6.7 6.4 6.7 6.3 5.1 5.6 3.5 3.3 2.6 2.7 2.6 2.9 2.9 3.7 4.3 5.1 6.1 6.3 7.1 6.3 5.6 6.8 6.6 7.9 7.5
8.5 8.9 8.1 7.5 7.7 7.3 7.2 7.3 7.4 6.9 6.9 6.8 6.8 7.2 7.5 7.5 7.1 7.4 7.5 7.0 6.7 6.6 5.5 4.8 4.4 2.3 2.1 2.0 1.9 1.9 1.9 2.6 3.5 3.4 2.8 4.3 4.6 4.7 4.9 5.6 6.4 6.8 6.7
8.0 7.9 8.0 7.9 8.0 8.1 7.9 7.7 7.5 7.3 7.2 6.9 7.5 7.9 7.7 7.7 7.6 7.2 6.8 7.1 7.1 6.4 6.6 5.2 3.2 2.1 2.0 2.1 1.7 1.8 1.8 2.0 2.3 2.6 3.0 3.1 3.6 4.1 4.6 4.8 5.3 5.7 6.1
8.0 8.1 8.5 8.6 8.6 8.5 8.5 8.2 8.1 7.9 7.7 7.3 7.4 7.9 8.0 8.0 7.9 7.7 6.7 6.5 6.6 6.7 6.5 5.9 3.8 1.6 2.4 2.4 1.6 1.4 1.4 1.5 1.9 1.9 2.7 3.1 3.6 4.4 3.7 4.1 4.9 5.3 5.2
8.2 9.2 9.0 8.7 8.8 8.8 9.2 9.0 8.5 8.2 8.1 7.7 7.4 7.6 7.9 8.6 8.0 7.7 7.6 6.8 6.5 6.7 6.4 6.0 4.6 3.4 3.1 2.5 1.8 1.1 0.7 0.9 1.4 2.1 2.2 3.0 3.9 4.8 3.8 4.1 4.8 4.1 3.9
8.9 8.7 8.9 8.8 8.9 8.8 8.7 8.8 9.0 8.6 8.3 8.1 8.0 7.7 8.0 8.0 7.9 8.0 8.1 7.4 6.8 6.8 6.5 6.3 5.4 2.6 1.9 1.8 1.1 0.4 0.4 0.6 0.4 0.7 1.8 3.1 4.5 4.0 3.3 3.0 3.0 2.8 2.8
8.8 8.9 9.0 8.9 8.9 8.8 9.0 8.7 8.7 8.6 8.5 8.2 8.0 8.0 8.1 8.1 8.1 8.4 8.1 7.7 7.6 6.8 6.2 6.1 5.1 3.1 2.5 1.7 1.4 1.2 0.8 -1.1 -0.7 -0.3 0.7 2.1 3.0 3.5 3.6 2.8 2.2 2.0 1.8
7.6 8.8 8.8 8.8 8.8 8.9 9.0 8.7 8.5 8.0 7.8 7.8 8.4 9.0 9.0 8.6 8.5 8.8 8.5 7.6 7.5 6.4 6.0 5.9 5.0 3.2 2.0 1.9 1.8 1.0 0.5 0.0 -1.0 -1.7 -1.5 -1.7 -0.7 1.4 1.6 0.9 0.9 1.0 1.6
6.9 7.7 7.6 8.2 8.2 8.9 9.1 9.0 8.6 7.8 7.4 7.4 7.4 8.1 8.8 8.8 8.4 8.8 8.8 8.6 8.2 7.0 6.0 5.4 5.4 4.7 2.1 1.8 1.1 1.6 0.7 1.0 1.4 -0.2 -0.9 -1.2 -1.0 -0.9 0.2 1.9 2.6 2.5 2.3
6.7 6.6 6.5 6.8 7.5 7.3 8.8 8.6 8.7 8.0 7.1 6.9 7.0 7.3 8.0 8.8 8.7 8.3 8.7 8.4 8.3 8.3 7.9 6.4 5.7 5.5 4.1 1.8 1.3 1.3 1.5 1.5 0.5 -1.2 -0.3 -0.9 -1.0 -0.6 -0.8 2.7 2.5 1.7 1.4
6.7 6.6 6.3 6.2 6.4 6.0 8.8 8.9 8.7 7.7 7.0 7.1 7.1 7.1 7.3 8.0 8.3 8.5 8.4 8.2 8.0 7.9 7.6 7.4 6.8 5.4 5.4 3.7 2.6 2.2 2.0 -0.9 -1.0 -1.2 -0.6 -0.0 -1.0 -0.7 -0.4 1.0 2.5 2.1 2.3
6.7 6.4 6.9 6.7 6.3 5.5 6.9 7.6 8.0 7.0 7.0 6.8 7.0 7.2 7.1 7.3 8.3 8.9 8.1 7.8 7.5 7.4 7.9 7.5 6.5 5.9 5.3 4.4 3.3 1.0 0.6 1.6 0.0 0.1 -0.9 -0.2 -0.5 -0.3 0.3 0.3 1.7 2.8 3.3
7.3 7.4 7.2 6.8 6.6 6.3 6.4 6.8 7.5 7.0 6.8 6.7 6.9 6.7 7.3 7.5 7.5 8.2 7.8 7.5 7.2 7.0 6.9 6.3 6.1 5.6 4.9 4.5 2.5 2.7 1.6 2.1 -0.5 0.3 -0.4 0.0 -0.2 0.6 1.7 1.1 1.1 2.2 3.1
Wind_Speed
10 12 14 14 13 15 13 12 11 7 6 7 9 8 9 12 11 10 9 10 8 5 6 8 12 16 22 24 24 21 20 17 21 24 24 22 21 23 20 19 18 17 15
12 11 10 12 13 16 15 13 8 5 5 4 5 6 8 12 13 13 9 12 9 6 10 15 13 11 21 24 26 24 22 20 23 24 23 22 23 23 20 20 20 19 17
13 11 9 7 12 16 16 14 10 8 5 6 6 3 5 8 11 11 8 7 9 10 14 16 17 13 20 24 26 25 24 24 24 24 23 22 22 21 21 19 20 19 19
16 11 7 7 14 13 12 7 7 7 6 6 6 4 4 3 4 5 5 7 7 11 17 21 16 8 15 23 27 27 27 26 25 24 23 22 23 21 21 21 20 20 19
17 13 10 11 13 10 6 6 7 6 7 7 7 6 4 4 4 6 5 5 9 9 10 16 18 14 18 19 24 26 28 29 28 25 22 22 23 22 21 20 19 21 20
15 15 14 13 14 7 7 7 7 6 6 7 8 7 5 4 4 5 7 7 9 11 12 13 14 16 27 25 23 24 25 28 29 27 23 23 23 23 23 23 22 21 20
16 13 11 12 11 7 9 8 8 7 7 7 6 4 3 6 7 7 6 6 7 9 12 12 11 12 15 28 23 23 27 29 34 28 25 25 25 26 26 26 24 23 21
17 16 12 8 8 8 7 7 8 6 4 3 5 7 3 3 4 6 5 6 8 5 5 9 9 11 13 13 16 24 27 23 29 26 29 28 28 28 27 26 25 24 23
19 15 13 10 9 7 7 6 6 7 6 4 4 4 4 2 3 0 4 3 4 3 3 5 6 8 9 11 12 18 26 28 30 33 34 34 31 31 29 28 28 27 25
16 16 13 12 9 6 8 7 8 7 7 7 4 3 5 6 3 3 1 2 2 4 5 4 3 4 7 8 10 13 16 22 29 30 34 33 35 35 33 30 29 28 28
13 13 15 12 6 5 6 8 8 8 7 7 6 5 7 7 8 4 5 3 2 4 3 3 3 3 7 8 9 11 20 22 25 29 35 38 37 34 34 34 33 31 29
6 12 13 14 10 6 6 6 7 7 8 9 7 6 6 5 5 5 2 3 5 3 4 3 4 3 5 5 7 12 15 19 23 28 34 34 40 42 39 39 36 34 31
8 9 10 9 7 7 7 7 8 8 7 8 10 7 7 7 7 7 7 6 4 2 3 3 3 3 4 8 5 5 11 13 19 22 28 35 38 37 42 38 37 34 32
8 11 10 9 10 11 10 9 6 7 8 7 10 8 7 6 7 6 7 6 6 4 2 4 3 3 5 6 4 4 7 9 13 16 21 26 32 36 36 36 36 36 33
9 10 10 7 9 9 8 8 7 8 7 8 9 10 7 6 6 7 7 6 6 3 3 4 3 0 3 3 2 1 2 5 8 11 14 18 22 13 17 31 32 33 31
9 9 10 8 9 10 9 8 7 7 8 7 8 10 7 6 6 6 7 7 6 7 4 1 2 1 4 2 1 1 1 5 8 9 11 12 12 9 16 35 34 29 29
11 12 11 11 10 10 9 10 9 9 9 8 8 8 9 9 6 5 6 7 6 5 5 2 1 1 2 2 2 3 3 4 6 10 12 10 13 11 25 36 35 32 31
12 12 12 11 12 12 12 11 11 10 10 10 9 9 10 7 9 7 6 8 7 6 4 4 3 1 1 2 3 3 3 4 3 9 10 9 7 10 16 30 30 38 37
12 12 12 12 12 12 13 12 13 11 11 10 10 10 11 10 9 6 7 6 6 6 5 5 4 2 1 2 3 3 3 4 9 15 16 6 9 16 28 32 35 35 33
14 14 13 12 13 12 13 13 12 13 12 11 11 11 11 11 11 9 7 9 8 7 7 6 3 3 2 1 2 2 3 3 4 8 19 21 19 15 19 27 27 27 29
13 14 13 13 13 12 10 12 12 12 12 12 12 11 12 12 16 14 7 8 8 6 6 4 3 3 3 2 4 3 3 1 4 4 4 6 5 10 15 19 25 26 25
13 13 14 13 14 10 21 22 18 11 12 12 11 11 11 15 16 20 20 20 15 9 9 6 4 4 5 3 4 5 5 2 2 3 3 4 6 5 6 10 20 24 24
13 14 14 13 14 14 23 23 22 12 10 11 12 11 11 9 14 11 16 20 21 22 21 11 8 7 4 7 9 6 6 3 3 3 5 2 3 4 7 14 19 20 20
14 13 14 14 14 13 24 23 24 13 11 12 12 12 12 12 12 12 12 11 10 11 11 8 10 9 8 7 12 9 10 6 5 3 3 3 1 3 3 10 15 17 17
14 14 14 16 15 15 24 25 21 11 11 12 12 13 13 14 19 22 14 12 11 10 10 15 15 13 18 16 13 10 7 9 2 2 1 3 2 3 2 2 6 14 13
15 12 15 16 20 16 23 26 20 9 10 8 10 12 22 19 23 23 14 13 12 11 8 8 8 12 16 16 25 14 11 11 4 2 4 4 5 3 3 0 2 7 10
Wind_Direction
355 348 341 341 345 347 341 332 322 324 324 352 317 332 254 237 225 215 186 209 226 258 287 290 268 232 209 191 184 180 178 190 186 172 169 168 167 162 163 161 156 141 154
349 350 340 340 345 342 332 327 314 316 305 286 279 308 313 257 235 229 201 197 213 280 302 282 281 225 209 195 187 183 186 183 184 180 176 177 173 170 165 167 158 155 165
350 343 334 334 338 334 331 333 326 335 324 314 280 268 294 303 226 207 198 198 202 249 255 273 277 256 214 210 197 187 186 187 185 182 180 180 177 176 174 174 164 168 166
344 339 334 326 329 329 334 340 341 335 327 325 310 279 257 274 284 262 209 180 209 227 231 220 256 283 249 222 207 196 188 189 185 188 186 184 180 183 180 188 169 173 170
335 336 327 322 329 327 327 334 334 324 320 318 310 299 268 250 242 241 246 214 221 239 245 226 207 223 266 238 219 213 199 191 185 187 194 187 185 188 184 184 178 183 181
333 337 328 320 326 324 326 328 322 324 309 313 311 294 275 248 235 234 230 236 229 232 239 239 207 205 221 240 224 220 203 195 191 185 192 191 191 190 187 188 190 188 183
329 330 318 317 311 314 320 320 315 315 322 321 303 294 281 262 234 222 218 214 218 219 230 239 225 212 211 222 223 214 216 206 194 182 190 197 196 195 191 189 190 191 193
316 319 322 315 318 312 308 315 320 312 309 359 317 302 281 310 256 244 225 218 217 200 213 230 227 216 213 213 218 214 213 208 186 179 199 197 199 200 197 196 194 196 193
320 306 312 321 320 320 305 307 310 309 308 318 303 302 317 285 332 71 249 249 246 219 220 234 230 218 215 214 215 220 210 193 197 196 196 197 197 202 200 199 196 197 194
310 316 314 317 311 326 324 320 320 310 298 300 316 308 300 304 297 308 285 307 262 230 212 218 227 234 224 224 215 219 213 219 212 214 199 196 202 200 200 203 199 199 197
311 317 321 307 308 314 318 313 319 325 315 306 299 306 304 303 280 269 288 261 291 251 250 234 235 229 228 229 228 226 218 212 224 223 206 203 205 203 200 203 202 199 200
311 310 311 309 301 302 307 314 307 307 307 301 293 285 279 284 308 315 292 276 266 273 237 225 228 225 223 230 237 240 238 225 220 222 221 213 206 206 200 203 203 199 198
313 308 305 302 305 303 304 305 300 296 293 290 288 282 276 272 281 290 291 289 272 283 249 230 216 217 212 225 237 266 248 240 233 221 223 229 223 206 211 199 200 201 196
299 297 291 296 302 309 305 296 288 293 288 291 292 281 278 270 284 273 271 301 292 244 252 245 221 194 193 189 200 246 272 284 262 259 245 235 238 219 205 202 194 202 191
296 302 298 285 292 293 295 292 289 286 287 287 282 280 269 261 271 273 273 261 272 284 240 224 207 144 128 94 72 13 316 295 282 273 280 274 275 242 228 201 204 192 192
298 303 302 294 297 296 293 287 285 280 282 287 288 285 278 267 260 278 288 264 246 267 274 258 232 146 93 84 82 336 297 298 292 296 289 289 284 271 243 191 186 190 185
306 303 301 299 298 295 299 296 289 282 273 281 283 287 279 268 259 268 281 292 269 249 246 273 92 346 95 123 77 39 352 313 302 300 289 284 294 268 216 177 178 173 163
301 304 303 304 303 302 297 295 298 296 290 286 284 284 285 285 267 261 269 274 288 280 261 259 176 149 129 116 97 74 16 9 350 299 291 288 285 235 190 182 175 154 149
306 302 301 298 299 299 296 293 289 287 285 280 278 277 275 277 269 257 272 281 281 280 266 234 220 137 127 126 74 56 31 15 35 38 43 353 191 147 133 136 141 141 141
305 301 298 296 293 292 289 288 287 285 281 275 270 266 267 266 269 256 254 261 267 268 260 261 184 159 149 139 111 121 90 19 32 41 57 55 66 99 126 134 134 134 134
300 298 295 292 289 286 281 281 279 279 279 280 277 269 269 274 281 259 245 256 265 275 287 252 215 145 147 153 161 145 95 96 34 19 55 32 36 79 93 98 110 115 122
300 297 295 292 289 285 284 288 286 277 272 268 268 268 263 264 271 269 263 256 255 259 263 268 276 210 169 158 132 155 137 133 115 309 82 40 28 56 60 110 126 129 131
302 297 293 290 286 284 287 289 285 277 268 258 254 254 254 253 259 258 257 257 257 252 248 251 253 263 187 184 150 150 162 144 149 135 106 67 19 67 24 118 128 122 120
302 298 294 290 286 284 289 290 288 282 268 266 261 254 249 250 245 253 258 253 254 250 248 245 241 240 246 184 173 171 160 111 74 76 101 113 103 61 34 75 117 125 134
302 298 294 295 289 286 289 289 287 277 266 256 251 251 248 248 246 246 248 249 252 248 250 257 261 258 229 188 158 128 147 145 115 164 149 111 144 101 43 67 110 138 142
296 297 294 296 289 288 288 289 288 276 265 258 252 249 252 249 246 248 241 239 240 239 232 242 248 253 237 186 166 171 166 170 133 124 196 115 138 147 122 39 123 144 143